Weather History for Dryden, TX

Change the Weather History Date:

Friday, March 1, 2013

  Actual Average (KFST) Record (KFST)
Temperature  
Mean Temperature 54 °F -  
Max Temperature 70 °F 65 °F 91 °F (2006)
Min Temperature 37 °F 40 °F 28 °F (1998)
Degree Days  
Heating Degree Days 12    
Growing Degree Days 4 (Base 50)    
Moisture  
Dew Point 10 °F    
Average Humidity 21    
Maximum Humidity 37    
Minimum Humidity 8    
Precipitation  
Precipitation 0.00 in - - ()
Sea Level Pressure  
Sea Level Pressure 30.20 in    
Wind  
Wind Speed 11 mph (NW)    
Max Wind Speed 18 mph    
Max Gust Speed 30 mph    
Averages and records for this station are not official NWS values.
T = Trace of Precipitation, MM = Missing Value Source: NWS Daily Summary

Daily Weather History Graph

Daily Weather History Graph

Search for Another Location

Airport:

Trip Planner

Search our weather history database for the weather conditions in past years. The results will help you decide how hot, cold, wet, or windy it might be!

Date:

Astronomy

Mar. 01, 2013 Rise Set
Actual Time 7:14 AM CST 6:48 PM CST
Civil Twilight 6:50 AM CST 7:12 PM CST
Nautical Twilight 6:22 AM CST 7:39 PM CST
Astronomical Twilight 5:54 AM CST 8:07 PM CST
Moon 10:59 PM CST (3/1) 9:24 AM CST (3/1)
Length of Visible Light 12h 21m
Length of Day
11h 33m
Waning Gibbous, 83% of the Moon is Illuminated
Mar 1
Waning Gibbous
Mar 4
Last Quarter
Mar 11
New
Mar 19
First Quarter
Mar 27
Full

Hourly Weather History & Observations

Time (CST) Temp. Windchill Dew Point Humidity Pressure Visibility Wind Dir Wind Speed Gust Speed Precip Events Conditions
12:53 AM 39.9 °F 33.9 °F 12.9 °F 33% 30.21 in - WNW 9.2 mph - N/A   Unknown
1:53 AM 39.9 °F 33.9 °F 12.9 °F 33% 30.20 in - WNW 9.2 mph - N/A   Unknown
2:53 AM 39.9 °F 33.9 °F 12.9 °F 33% 30.18 in - WNW 9.2 mph - N/A   Unknown
3:53 AM 42.1 °F 36.6 °F 12.9 °F 31% 30.16 in - WNW 9.2 mph - N/A   Unknown
4:53 AM 41.0 °F 36.4 °F 12.9 °F 32% 30.16 in - West 6.9 mph - N/A   Unknown
5:53 AM 39.0 °F 32.3 °F 12.9 °F 34% 30.17 in - West 10.4 mph - N/A   Unknown
6:53 AM 37.0 °F 29.8 °F 12.9 °F 37% 30.19 in - West 10.4 mph - N/A   Unknown
7:53 AM 41.0 °F 34.7 °F 12.9 °F 32% 30.20 in - WSW 10.4 mph - N/A   Unknown
8:53 AM 50.0 °F - 14.0 °F 24% 30.21 in - WSW 11.5 mph - N/A   Unknown
9:53 AM 55.9 °F - 15.1 °F 20% 30.21 in - WSW 17.3 mph - N/A   Unknown
10:53 AM 63.0 °F - 12.0 °F 14% 30.19 in - WSW 12.7 mph 19.6 mph N/A   Unknown
11:13 AM 66.2 °F - 6.8 °F 10% 30.24 in - WNW 18.4 mph 25.3 mph N/A   Unknown
11:53 AM 66.9 °F - 7.0 °F 10% 30.20 in - WNW 18.4 mph 26.5 mph N/A   Unknown
12:53 PM 69.1 °F - 8.1 °F 9% 30.19 in - NW 15.0 mph 23.0 mph N/A   Unknown
1:53 PM 70.0 °F - 8.1 °F 9% 30.18 in - North 18.4 mph 26.5 mph N/A   Unknown
2:53 PM 70.0 °F - 8.1 °F 9% 30.17 in - NNW 18.4 mph 29.9 mph N/A   Unknown
3:53 PM 69.1 °F - 6.1 °F 9% 30.17 in - North 18.4 mph 29.9 mph N/A   Unknown
4:53 PM 69.1 °F - 3.9 °F 8% 30.18 in - NNW 15.0 mph 24.2 mph N/A   Unknown
5:53 PM 66.9 °F - 3.0 °F 8% 30.19 in - NNW 15.0 mph 24.2 mph N/A   Unknown
6:53 PM 60.1 °F - 7.0 °F 12% 30.22 in - North 8.1 mph - N/A   Unknown
7:53 PM 53.1 °F - 8.1 °F 16% 30.25 in - North 9.2 mph - N/A   Unknown
8:53 PM 53.1 °F - 9.0 °F 17% 30.25 in - North 9.2 mph - N/A   Unknown
9:53 PM 50.0 °F - 9.0 °F 19% 30.26 in - NW 4.6 mph - N/A   Unknown
10:53 PM 43.0 °F 39.5 °F 10.0 °F 26% 30.25 in - NNW 5.8 mph - N/A   Unknown
11:53 PM 41.0 °F 39.0 °F 10.9 °F 29% 30.26 in - NW 3.5 mph - N/A   Unknown